Tracking 22081 objects as of 4-Dec-2020
HD Live streaming from Space Station
objects crossing your sky now

BNU-1

Track BNU-1 now!
10-day predictions


NORAD ID: 44529
Int'l Code: 2019-059B
Perigee: 739.2 km
Apogee: 758.1 km
Inclination: 98.5 °
Period: 99.6 minutes
Semi major axis: 7119 km
RCS: Unknown
Launch date: September 12, 2019
Source: People's Republic of China (PRC)
Launch site: Taiyaun Space Center, China (TSC)
aabbcc
Your satellite tracking list
Your tracking list is empty




NASA's NSSDC Master Catalog

Two Line Element Set (TLE):
1 44529U 19059B   20338.98846571  .00000140  00000-0  52945-4 0  9996
2 44529  98.5438  60.6457 0013286   5.9618 354.1695 14.45161753 64820
Source of the keplerian elements: AFSPC